Friday Harbor, WA

1:18 AM PDT on October 18, 2017 (GMT -0700)
Friday Harbor

Weather History for KFHR - August, 2014

Change the Weather History Date:

Tuesday, August 19, 2014

  Actual Average Record
Temperature  
Mean Temperature 62 °F -  
Max Temperature 73 °F 69 °F 93 °F (2016)
Min Temperature 53 °F 48 °F 46 °F (2001)
Degree Days  
Heating Degree Days 2    
Growing Degree Days 12 (Base 50)    
Moisture  
Dew Point 54 °F    
Average Humidity 79    
Maximum Humidity 97    
Minimum Humidity 61    
Precipitation  
Precipitation 0.00 in - - ()
Sea Level Pressure  
Sea Level Pressure 29.82 in    
Wind  
Wind Speed 3 mph (SSE)    
Max Wind Speed 10 mph    
Max Gust Speed 18 mph    
Visibility 10 miles    
Events      
Averages and records for this station are not official NWS values.
T = Trace of Precipitation, MM = Missing Value Source: NWS Daily Summary

Daily Weather History Graph

Daily Weather History Graph

Search for Another Location

Airport or City:

Trip Planner

Search our weather history database for the weather conditions in past years. The results will help you decide how hot, cold, wet, or windy it might be!

Date:

Astronomy

Aug. 19, 2014 Rise Set
Actual Time 6:11 AM PDT 8:18 PM PDT
Civil Twilight 5:37 AM PDT 8:52 PM PDT
Nautical Twilight 4:54 AM PDT 9:35 PM PDT
Astronomical Twilight 4:07 AM PDT 10:22 PM PDT
Moon 12:59 AM PDT (8/19) 4:29 PM PDT (8/19)
Length of Visible Light 15h 15m
Length of Day
14h 07m
Waning Crescent, 28% of the Moon is Illuminated
Aug 19
Waning Crescent
Aug 25
New
Sep 2
First Quarter
Sep 8
Full
Sep 15
Last Quarter

Hourly Weather History & Observations

Time (PDT) Temp. Dew Point Humidity Pressure Visibility Wind Dir Wind Speed Gust Speed Precip Events Conditions
12:53 AM 55.0 °F 53.1 °F 93% 29.84 in 10.0 mi Calm Calm - N/A   Scattered Clouds
2:53 AM 55.9 °F 53.1 °F 90% 29.83 in 10.0 mi Calm Calm - N/A   Clear
3:53 AM 53.1 °F 52.0 °F 96% 29.83 in 10.0 mi Calm Calm - N/A   Clear
5:53 AM 53.1 °F 52.0 °F 96% 29.83 in 10.0 mi Calm Calm - N/A   Clear
6:53 AM 54.0 °F 53.1 °F 97% 29.84 in 7.0 mi Calm Calm - N/A   Clear
7:53 AM 55.9 °F 54.0 °F 93% 29.84 in 8.0 mi Calm Calm - N/A   Clear
8:53 AM 61.0 °F 55.0 °F 81% 29.84 in 10.0 mi Variable 3.5 mph - N/A   Clear
9:53 AM 64.0 °F 57.0 °F 78% 29.85 in 10.0 mi ESE 6.9 mph - N/A   Clear
10:53 AM 64.9 °F 55.9 °F 73% 29.85 in 10.0 mi East 6.9 mph - N/A   Clear
11:53 AM 71.1 °F 57.0 °F 61% 29.84 in 10.0 mi SW 8.1 mph - N/A   Mostly Cloudy
12:53 PM 72.0 °F 59.0 °F 64% 29.83 in 10.0 mi SSW 10.4 mph 18.4 mph N/A   Mostly Cloudy
1:53 PM 69.1 °F 57.0 °F 65% 29.83 in 10.0 mi SW 8.1 mph - N/A   Partly Cloudy
2:53 PM 70.0 °F 57.0 °F 63% 29.82 in 10.0 mi South 8.1 mph - N/A   Partly Cloudy
3:53 PM 64.9 °F 55.0 °F 70% 29.81 in 10.0 mi ESE 5.8 mph - N/A   Clear
4:53 PM 62.1 °F 54.0 °F 75% 29.80 in 10.0 mi ESE 4.6 mph - N/A   Partly Cloudy
5:53 PM 61.0 °F 54.0 °F 78% 29.79 in 10.0 mi ESE 3.5 mph - N/A   Clear
6:53 PM 62.1 °F 53.1 °F 72% 29.78 in 10.0 mi NE 3.5 mph - N/A   Clear
7:53 PM 57.0 °F 52.0 °F 83% 29.78 in 10.0 mi Calm Calm - N/A   Clear
8:53 PM 61.0 °F 53.1 °F 75% 29.78 in 10.0 mi Variable 4.6 mph - N/A   Clear
9:53 PM 61.0 °F 52.0 °F 72% 29.79 in 10.0 mi WSW 5.8 mph - N/A   Clear
10:53 PM 59.0 °F 51.1 °F 75% 29.80 in 10.0 mi Variable 3.5 mph - N/A   Clear
11:53 PM 55.0 °F 51.1 °F 86% 29.80 in 10.0 mi Calm Calm - N/A   Clear